sat.trackr.live / text

‹ back to catalog

SES-12

NORAD 43488 · 2018-049A

PAYLOAD ACTIVE UNKNOWN

§ Identity

Operator
Country
SES
Launch date
2018-06-04
Launch site
AFETR
Launch vehicle
Mass (kg)
RCS (m²)

Purposes: comms

External: N2YO · Heavens-Above · Gunter

§ Orbital elements

Epoch: 2026-09-12T19:29:21.308352Z

Period
1,436.11 min
Inclination
0.0196°
Eccentricity
0.0001721
Mean motion
1.00270927 rev/d
Perigee alt
35,779.6 km
Apogee alt
35,794.1 km
Semi-major
42,165.0 km
B*
0.0000e+0
RAAN
65.2569°
Arg perigee
171.7196°
Mean anomaly
142.1753°
Rev number
3,029

§ Raw data

SES-121 43488U 18049A   26255.81205218 -.00000282  00000+0  00000+0 0  99972 43488   0.0196  65.2569 0001721 171.7196 142.1753  1.00270927 30296

JSON: /api/v1/satellites/43488 · /tle

For live sub-satellite position, see the globe view (requires WebGL).

§ Visibility from observer

Set your observer location to see the next 7 days of passes ≥ 10°. The values pass through the URL so the page stays shareable.

No JS? Fill the form by hand. The geolocation button needs JavaScript.